Location: ?????????
(53.2086°N, 54.0693°E)
Time: 04:51:58
(UTC+00:00)

Feng Yun 1-1 Rocket - Pass Details

Date: 08 December 2019
Orbit: 830 x 933 km, 99.2° (Epoch: 18 January)

Event Time Altitude Azimuth Distance (km) Brightness Sun altitude
Rises 13:19:28 0° 156° (SSE) 3,372 7.3 -10.1°
Reaches altitude 10° 13:21:49 10° 155° (SSE) 2,437 6.6 -10.4°
Maximum altitude 13:27:11 77° 70° (ENE) 859 4.1 -11.2°
Drops below altitude 10° 13:32:36 10° 346° (NNW) 2,459 6.5 -11.9°
Sets 13:34:59 0° 345° (NNW) 3,405 7.3 -12.2°
